[[{"header":{"parameterUnit":"m.s-1","parameterCategory":1,"la1":30.2992,"la2":30.254,"lo1":-89.0895,"lo2":-89.0443,"dy":0.0025,"dx":0.0025,"nx":19,"ny":19,"refTime":"2026-03-31T09:00:00:Z","depth":0,"parameterNumber":2,"parameterNumberName":"U-component_of_WINDS"},"data":[0,0,0,-4.0149,-4.0151,-4.0231,-4.0231,-4.0342,-4.0343,0,0,0,0,0,0,0,0,0,0,0,-4.0131,-4.0132,-4.0149,-4.0151,-4.0231,-4.0231,-4.0342,-4.0343,0,0,0,0,0,0,0,0,0,0,0,-4.0131,-4.0132,-4.0133,-4.0152,-4.0231,-4.0231,-4.0341,-4.0278,0,0,0,0,0,0,0,0,0,0,-4.0199,-4.0188,-4.0132,-4.0133,-4.0152,-4.0231,-4.0231,-4.0275,-4.0282,-4.031,0,-4.0336,0,-4.0341,-4.0351,-4.0351,0,0,0,-4.0147,-4.0182,-4.0199,-4.0134,-4.0153,-4.0231,-4.0194,-4.0279,-4.0287,-4.0319,-4.0338,-4.0342,-4.0343,-4.0352,-4.0352,-4.0527,-4.0528,0,0,-4.0142,-4.0149,-4.0193,-4.0204,-4.0193,-4.0191,-4.0196,-4.0283,-4.0304,-4.0338,-4.0344,-4.0345,-4.0352,-4.0353,-4.0526,-4.0527,0,0,0,-4.0133,-4.0146,-4.016,-4.02,-4.0214,-4.0194,-4.0199,-4.03,-4.0304,-4.0345,-4.0346,-4.0353,-4.0355,-4.0525,-4.0527,-4.0582,0,0,0,-4.013,-4.014,-4.0158,-4.0163,-4.0212,-4.0258,-4.0214,-4.0298,-4.0308,-4.0346,-4.0353,-4.0356,-4.0524,-4.0526,-4.0578,-4.0607,0,0,0,-4.0124,-4.0139,-4.0153,-4.0163,-4.0198,-4.0256,-4.0265,-4.03,-4.0309,-4.0351,-4.0356,-4.0523,-4.0526,-4.0575,-4.0601,-4.0653,0,0,0,-4.012,-4.0202,-4.0154,-4.0246,-4.0197,-4.0291,-4.0265,-4.0334,-4.0378,-4.0354,-4.0524,-4.0526,-4.0573,-4.0597,-4.0649,-4.0697,-4.0718,0,0,-4.0227,-4.0215,-4.0269,-4.0228,-4.0332,-4.0278,-4.039,-4.0424,-4.0423,-4.0492,-4.0496,-4.0579,-4.06,-4.0652,-4.0836,-4.0853,0,0,0,-4.0305,-4.0343,-4.0369,-4.0411,-4.0439,-4.0465,-4.0481,-4.0494,-4.0553,-4.046,-4.0613,-4.0626,-4.0656,-4.0678,-4.0692,-4.0717,-4.0538,-4.0537,-4.0537,-4.0463,-4.0457,-4.0545,-4.0549,-4.059,-4.0606,-4.0638,-4.0657,-4.064,-4.0676,-4.0696,-4.0808,-4.0835,-4.0845,-4.0871,-4.0722,-4.0723,-4.0723,-4.0723,-4.0617,-4.067,-4.0645,-4.072,-4.0714,-4.0777,-4.0796,-4.0782,-4.0839,-4.0793,-4.0819,-4.0767,-4.0864,-4.0886,-4.0727,-4.0726,-4.0726,-4.0725,-4.0725,-4.0718,-4.0742,-4.0757,-4.0816,-4.0863,-4.0864,-4.0921,-4.0913,-4.0906,-4.0932,-4.0951,-4.095,-4.0946,-4.0943,-4.0943,-4.0943,-4.0944,-4.0944,-4.0944,-4.0816,-4.0831,-4.088,-4.0917,-4.0942,-4.0975,-4.0993,-4.1018,-4.1043,-4.1033,-4.1033,-4.101,-4.0875,-4.084,-4.095,-4.0949,-4.0948,-4.0948,-4.0947,-4.0971,-4.0935,-4.101,-4.1035,-4.1078,-4.1124,-4.1115,-4.1166,-4.1185,-4.1213,-4.1186,-4.1088,-4.1075,-4.1064,-4.1034,-4.1188,-4.1188,-4.1188,-4.1188,-4.1054,-4.1048,-4.1122,-4.1163,-4.1203,-4.1202,-4.1286,-4.1301,-4.1311,-4.1322,-4.13,-4.1261,-4.125,-4.1243,-4.1228,-4.12,-4.1393,-4.1393,-4.1394,-4.1148,-4.1145,-4.1217,-4.1227,-4.126,-4.1288,-4.1367,-4.1415,-4.1419,-4.1402,-4.1331,-4.1322,-4.126,-4.124,-4.1219,-4.1195,-4.1144,0,0]},{"header":{"parameterUnit":"m.s-1","parameterCategory":1,"la1":30.2992,"la2":30.254,"lo1":-89.0895,"lo2":-89.0443,"dy":0.0025,"dx":0.0025,"nx":19,"ny":19,"refTime":"2026-03-31T09:00:00:Z","depth":0,"parameterNumber":3,"parameterNumberName":"V-component_of_WINDS"},"data":[0,0,0,2.7062,2.7064,2.7166,2.7167,2.7289,2.729,0,0,0,0,0,0,0,0,0,0,0,2.7028,2.7029,2.7062,2.7065,2.7166,2.7167,2.7289,2.729,0,0,0,0,0,0,0,0,0,0,0,2.7028,2.7029,2.703,2.7065,2.7166,2.7167,2.7288,2.7214,0,0,0,0,0,0,0,0,0,0,2.7117,2.7082,2.7029,2.703,2.7066,2.7166,2.7167,2.7211,2.7219,2.724,0,2.7258,0,2.7276,2.7298,2.7298,0,0,0,2.7067,2.7075,2.7106,2.703,2.7066,2.7166,2.7121,2.7215,2.7225,2.725,2.726,2.7265,2.7278,2.7298,2.7299,2.7414,2.7415,0,0,2.7062,2.7044,2.71,2.7112,2.7097,2.7118,2.7124,2.7221,2.723,2.726,2.7268,2.728,2.7299,2.73,2.7414,2.7414,0,0,0,2.7044,2.704,2.7069,2.7107,2.7126,2.7121,2.7128,2.7225,2.7236,2.7269,2.7281,2.73,2.7301,2.7413,2.7414,2.7419,0,0,0,2.704,2.703,2.7066,2.7057,2.7124,2.7177,2.713,2.723,2.7241,2.7281,2.73,2.7302,2.7413,2.7414,2.7418,2.7425,0,0,0,2.7023,2.7028,2.7041,2.7055,2.7099,2.7176,2.7192,2.7233,2.7249,2.7298,2.7303,2.7413,2.7414,2.7417,2.7423,2.7452,0,0,0,2.6999,2.7042,2.7041,2.7094,2.7098,2.7178,2.7192,2.7252,2.7295,2.73,2.7413,2.7414,2.7417,2.7422,2.7451,2.7474,2.7482,0,0,2.7044,2.7047,2.708,2.7082,2.7159,2.7164,2.7241,2.7296,2.7316,2.738,2.7383,2.7419,2.7423,2.7452,2.7528,2.7534,0,0,0,2.7089,2.7113,2.7137,2.7178,2.7222,2.7261,2.7306,2.7327,2.7383,2.7346,2.7436,2.744,2.7457,2.7469,2.7474,2.7491,2.7418,2.7418,2.7418,2.7128,2.7153,2.721,2.7247,2.7286,2.7334,2.7369,2.7404,2.7416,2.7437,2.7457,2.75,2.7513,2.7517,2.7534,2.7469,2.7469,2.7469,2.747,2.7198,2.7237,2.7253,2.7315,2.734,2.7392,2.7439,2.7446,2.7498,2.7486,2.7503,2.749,2.7523,2.7539,2.747,2.747,2.747,2.747,2.747,2.7228,2.7251,2.7276,2.734,2.7386,2.7421,2.7471,2.7492,2.7512,2.7528,2.7552,2.7552,2.7556,2.7538,2.7538,2.7538,2.7538,2.7538,2.7538,2.7249,2.7278,2.7318,2.737,2.74,2.7443,2.7491,2.7522,2.756,2.7571,2.7572,2.7582,2.7521,2.7506,2.7541,2.7541,2.754,2.754,2.754,2.7314,2.7304,2.7365,2.7396,2.746,2.7505,2.7531,2.7591,2.7619,2.7643,2.765,2.7601,2.7605,2.7601,2.759,2.7644,2.7644,2.7644,2.7644,2.7341,2.7345,2.7415,2.7463,2.7511,2.7542,2.7612,2.7651,2.7688,2.7707,2.7702,2.7688,2.7683,2.769,2.7684,2.7674,2.7748,2.7748,2.7748,2.7383,2.7394,2.745,2.7488,2.754,2.7584,2.7651,2.7705,2.7745,2.7753,2.7723,2.7719,2.7695,2.7686,2.7694,2.7684,2.7665,0,0]}]]